Location: Dennehotso
(36.8461°N, 109.8435°W)
Time: 23:32:04
(UTC+00:00)

N. Korean satellite - Pass Details

Date: 03 March 2021
Orbit: 453 x 499 km, 97.2° (Epoch: 12 April)

Event Time Altitude Azimuth Distance (km) Brightness Sun altitude
Rises 11:45:11 0° 33° (NNE) 2,528 10.8 -25.1°
Reaches altitude 10° 11:48:00 10° 59° (ENE) 1,655 10.2 -24.5°
Maximum altitude 11:50:02 14° 94° (E) 1,403 9.8 -24.1°
Drops below altitude 10° 11:52:03 10° 129° (SE) 1,663 9.8 -23.7°
Sets 11:54:54 0° 154° (SSE) 2,547 10.4 -23.2°
